Ortonville, MN

2:09 AM CST on February 21, 2018 (GMT -0600)
Ortonville Municipal-Martinson

Weather History for KVVV - October, 2012

Change the Weather History Date:

Sunday, October 7, 2012

  Actual Average (KAQP) Record (KAQP)
Temperature  
Mean Temperature 42 °F -  
Max Temperature 57 °F 61 °F 86 °F (2003)
Min Temperature 26 °F 37 °F 24 °F (2001)
Degree Days  
Heating Degree Days 24    
Moisture  
Dew Point 18 °F    
Average Humidity 45    
Maximum Humidity 74    
Minimum Humidity 20    
Precipitation  
Precipitation 0.00 in - - ()
Sea Level Pressure  
Sea Level Pressure 30.00 in    
Wind  
Wind Speed 6 mph (SSW)    
Max Wind Speed 15 mph    
Max Gust Speed 22 mph    
Visibility 10 miles    
Events      
Averages and records for this station are not official NWS values.
T = Trace of Precipitation, MM = Missing Value Source: NWS Daily Summary

Daily Weather History Graph

Daily Weather History Graph

Search for Another Location

Airport or City:

Trip Planner

Search our weather history database for the weather conditions in past years. The results will help you decide how hot, cold, wet, or windy it might be!

Date:

Astronomy

Oct. 07, 2012 Rise Set
Actual Time 7:32 AM CDT 6:53 PM CDT
Civil Twilight 7:02 AM CDT 7:23 PM CDT
Nautical Twilight 6:28 AM CDT 7:57 PM CDT
Astronomical Twilight 5:53 AM CDT 8:31 PM CDT
Moon 11:55 PM CDT (10/7) 2:21 PM CDT (10/7)
Length of Visible Light 12h 20m
Length of Day
11h 21m
Waning Gibbous, 56% of the Moon is Illuminated
Oct 7
Waning Gibbous
Oct 8
Last Quarter
Oct 15
New
Oct 21
First Quarter
Oct 29
Full

Hourly Weather History & Observations

Time (CDT) Temp. Windchill Dew Point Humidity Pressure Visibility Wind Dir Wind Speed Gust Speed Precip Events Conditions
12:04 AM 28.4 °F 23.3 °F 17.6 °F 64% 30.23 in 10.0 mi SSW 4.6 mph - N/A   Clear
12:24 AM 26.6 °F 21.2 °F 17.6 °F 69% 30.23 in 10.0 mi SSW 4.6 mph - N/A   Clear
12:44 AM 26.6 °F 21.2 °F 17.6 °F 69% 30.22 in 10.0 mi SSW 4.6 mph - N/A   Clear
1:04 AM 26.6 °F 21.2 °F 17.6 °F 69% 30.21 in 10.0 mi SSW 4.6 mph - N/A   Clear
1:24 AM 26.6 °F 21.2 °F 17.6 °F 69% 30.21 in 10.0 mi South 4.6 mph - N/A   Clear
1:44 AM 26.6 °F 21.2 °F 17.6 °F 69% 30.20 in 10.0 mi South 4.6 mph - N/A   Clear
2:04 AM 28.4 °F 23.3 °F 19.4 °F 69% 30.19 in 10.0 mi South 4.6 mph - N/A   Clear
2:24 AM 26.6 °F 21.2 °F 19.4 °F 74% 30.19 in 10.0 mi South 4.6 mph - N/A   Clear
2:44 AM 26.6 °F 21.2 °F 19.4 °F 74% 30.18 in 10.0 mi SSW 4.6 mph - N/A   Clear
3:03 AM 26.6 °F 21.2 °F 19.4 °F 74% 30.18 in 10.0 mi SSW 4.6 mph - N/A   Clear
3:24 AM 26.6 °F 21.2 °F 19.4 °F 74% 30.17 in 10.0 mi SSW 4.6 mph - N/A   Clear
3:44 AM 26.6 °F 21.2 °F 19.4 °F 74% 30.16 in 10.0 mi SW 4.6 mph - N/A   Clear
4:03 AM 26.6 °F 22.6 °F 19.4 °F 74% 30.16 in 10.0 mi SW 3.5 mph - N/A   Clear
4:24 AM 26.6 °F 21.2 °F 19.4 °F 74% 30.15 in 10.0 mi SSW 4.6 mph - N/A   Clear
4:43 AM 26.6 °F 19.1 °F 17.6 °F 69% 30.14 in 10.0 mi SSW 6.9 mph - N/A   Clear
5:04 AM 26.6 °F 20.0 °F 17.6 °F 69% 30.13 in 10.0 mi SW 5.8 mph - N/A   Clear
5:23 AM 26.6 °F 21.2 °F 17.6 °F 69% 30.13 in 10.0 mi SSW 4.6 mph - N/A   Clear
5:44 AM 26.6 °F 21.2 °F 17.6 °F 69% 30.12 in 10.0 mi SSW 4.6 mph - N/A   Clear
6:04 AM 26.6 °F 21.2 °F 17.6 °F 69% 30.12 in 10.0 mi SSW 4.6 mph - N/A   Clear
6:23 AM 26.6 °F 21.2 °F 17.6 °F 69% 30.11 in 10.0 mi South 4.6 mph - N/A   Clear
6:44 AM 26.6 °F 21.2 °F 17.6 °F 69% 30.11 in 10.0 mi South 4.6 mph - N/A   Clear
7:03 AM 26.6 °F 21.2 °F 17.6 °F 69% 30.10 in 10.0 mi South 4.6 mph - N/A   Clear
7:24 AM 26.6 °F 21.2 °F 17.6 °F 69% 30.10 in 10.0 mi South 4.6 mph - N/A   Clear
8:24 AM 28.4 °F 23.3 °F 19.4 °F 69% 30.08 in 10.0 mi South 4.6 mph - N/A   Clear
8:44 AM 30.2 °F 25.4 °F 19.4 °F 64% 30.07 in 10.0 mi South 4.6 mph - N/A   Clear
9:03 AM 32.0 °F 28.7 °F 21.2 °F 64% 30.07 in 10.0 mi South 3.5 mph - N/A   Clear
9:24 AM 35.6 °F 30.7 °F 21.2 °F 56% 30.06 in 10.0 mi South 5.8 mph - N/A   Clear
9:44 AM 39.2 °F 34.2 °F 23.0 °F 52% 30.06 in 10.0 mi SSW 6.9 mph - N/A   Clear
10:03 AM 42.8 °F 38.6 °F 21.2 °F 42% 30.05 in 10.0 mi SSW 6.9 mph - N/A   Clear
10:24 AM 44.6 °F 39.7 °F 19.4 °F 37% 30.05 in 10.0 mi SW 9.2 mph - N/A   Clear
11:04 AM 48.2 °F - 15.8 °F 27% 30.03 in 10.0 mi WSW 11.5 mph 18.4 mph N/A   Clear
11:24 AM 50.0 °F - 15.8 °F 26% 30.02 in 10.0 mi SW 13.8 mph 19.6 mph N/A   Clear
11:43 AM 51.8 °F - 17.6 °F 26% 30.02 in 10.0 mi SW 10.4 mph 18.4 mph N/A   Clear
12:24 PM 53.6 °F - 19.4 °F 26% 30.00 in 10.0 mi WSW 10.4 mph 17.3 mph N/A   Clear
1:04 PM 53.6 °F - 19.4 °F 26% 29.99 in 10.0 mi SW 10.4 mph 19.6 mph N/A   Scattered Clouds
1:24 PM 53.6 °F - 17.6 °F 24% 29.97 in 10.0 mi WSW 13.8 mph 21.9 mph N/A   Scattered Clouds
1:44 PM 55.4 °F - 17.6 °F 23% 29.96 in 10.0 mi WSW 15.0 mph 20.7 mph N/A   Clear
2:04 PM 53.6 °F - 17.6 °F 24% 29.95 in 10.0 mi WSW 10.4 mph 20.7 mph N/A   Scattered Clouds
2:23 PM 55.4 °F - 17.6 °F 23% 29.94 in 10.0 mi SW 11.5 mph 16.1 mph N/A   Scattered Clouds
3:04 PM 55.4 °F - 15.8 °F 21% 29.92 in 10.0 mi WSW 13.8 mph 18.4 mph N/A   Clear
3:23 PM 55.4 °F - 15.8 °F 21% 29.91 in 10.0 mi West 12.7 mph - N/A   Clear
3:44 PM 55.4 °F - 15.8 °F 21% 29.90 in 10.0 mi West 9.2 mph 16.1 mph N/A   Clear
4:03 PM 55.4 °F - 15.8 °F 21% 29.90 in 10.0 mi West 12.7 mph 18.4 mph N/A   Clear
4:24 PM 57.2 °F - 15.8 °F 20% 29.89 in 10.0 mi West 9.2 mph 16.1 mph N/A   Clear
4:44 PM 57.2 °F - 15.8 °F 20% 29.88 in 10.0 mi SW 9.2 mph - N/A   Scattered Clouds
5:03 PM 57.2 °F - 15.8 °F 20% 29.88 in 10.0 mi WSW 9.2 mph - N/A   Clear
5:24 PM 55.4 °F - 17.6 °F 23% 29.88 in 10.0 mi West 8.1 mph 11.5 mph N/A   Clear
5:44 PM 55.4 °F - 15.8 °F 21% 29.87 in 10.0 mi WSW 5.8 mph - N/A   Clear
6:03 PM 55.4 °F - 17.6 °F 23% 29.86 in 10.0 mi WSW 4.6 mph - N/A   Clear
6:24 PM 53.6 °F - 15.8 °F 22% 29.86 in 10.0 mi SW 4.6 mph - N/A   Clear
6:44 PM 53.6 °F - 15.8 °F 22% 29.85 in 10.0 mi SSW 3.5 mph - N/A   Clear
7:04 PM 51.8 °F - 15.8 °F 24% 29.85 in 10.0 mi Calm Calm - N/A   Clear
7:24 PM 48.2 °F - 15.8 °F 27% 29.85 in 10.0 mi South 3.5 mph - N/A   Clear
7:44 PM 46.4 °F 45.2 °F 15.8 °F 29% 29.85 in 10.0 mi South 3.5 mph - N/A   Clear
8:04 PM 44.6 °F 42.2 °F 15.8 °F 31% 29.85 in 10.0 mi SSW 4.6 mph - N/A   Clear
8:23 PM 44.6 °F 42.2 °F 15.8 °F 31% 29.84 in 10.0 mi South 4.6 mph - N/A   Clear
8:44 PM 44.6 °F 42.2 °F 15.8 °F 31% 29.84 in 10.0 mi South 4.6 mph - N/A   Clear
9:04 PM 44.6 °F 42.2 °F 17.6 °F 34% 29.84 in 10.0 mi South 4.6 mph - N/A   Clear
9:23 PM 42.8 °F 39.3 °F 15.8 °F 34% 29.84 in 10.0 mi SSW 5.8 mph - N/A   Clear
9:44 PM 42.8 °F 40.1 °F 17.6 °F 36% 29.84 in 10.0 mi South 4.6 mph - N/A   Clear
10:03 PM 42.8 °F 39.3 °F 17.6 °F 36% 29.83 in 10.0 mi South 5.8 mph - N/A   Clear
10:24 PM 42.8 °F 38.6 °F 17.6 °F 36% 29.83 in 10.0 mi South 6.9 mph - N/A   Clear
10:44 PM 41.0 °F 37.1 °F 17.6 °F 39% 29.82 in 10.0 mi South 5.8 mph - N/A   Clear
11:03 PM 39.2 °F 35.0 °F 17.6 °F 42% 29.82 in 10.0 mi SSW 5.8 mph - N/A   Clear
11:24 PM 39.2 °F 35.9 °F 17.6 °F 42% 29.81 in 10.0 mi SSW 4.6 mph - N/A   Clear
11:44 PM 39.2 °F 35.9 °F 17.6 °F 42% 29.80 in 10.0 mi South 4.6 mph - N/A   Clear